Wetterdaten: Freitag, 10.12.2010
Datum Zeit Temp. A. Feuchte A. Luftdruck Regen Wind Richtung Richtung Sonnenschein UV Solar Windben
10.12.2010 00:00 0,8 C 91 % 1021,6 hPa 0,0 mm 3,2 km/h (1 Bft) W 270 0 min 0 UV-I 0 W/m 20,9 km/h (4 Bft)
10.12.2010 00:10 0,8 C 91 % 1021,6 hPa 0,0 mm 1,6 km/h (1 Bft) W-NW 292 0 min 0 UV-I 0 W/m 8,0 km/h (2 Bft)
10.12.2010 00:20 0,8 C 91 % 1021,6 hPa 0,3 mm 3,2 km/h (1 Bft) W 270 0 min 0 UV-I 0 W/m 6,4 km/h (2 Bft)
10.12.2010 00:30 0,8 C 91 % 1021,6 hPa 0,0 mm 3,2 km/h (1 Bft) W 270 0 min 0 UV-I 0 W/m 8,0 km/h (2 Bft)
10.12.2010 00:40 0,8 C 91 % 1021,7 hPa 0,3 mm 3,2 km/h (1 Bft) W 270 0 min 0 UV-I 0 W/m 9,7 km/h (2 Bft)
10.12.2010 00:50 0,8 C 91 % 1021,7 hPa 0,0 mm 3,2 km/h (1 Bft) W 270 0 min 0 UV-I 0 W/m 14,5 km/h (3 Bft)
10.12.2010 01:00 0,8 C 91 % 1021,9 hPa 0,0 mm 3,2 km/h (1 Bft) W 270 0 min 0 UV-I 0 W/m 8,0 km/h (2 Bft)
10.12.2010 01:10 0,8 C 91 % 1022,1 hPa 0,0 mm 1,6 km/h (1 Bft) NW 315 0 min 0 UV-I 0 W/m 6,4 km/h (2 Bft)
10.12.2010 01:20 0,8 C 91 % 1022,0 hPa 0,3 mm 3,2 km/h (1 Bft) W 270 0 min 0 UV-I 0 W/m 8,0 km/h (2 Bft)
10.12.2010 01:30 0,8 C 91 % 1022,2 hPa 0,0 mm 3,2 km/h (1 Bft) NW 315 0 min 0 UV-I 0 W/m 8,0 km/h (2 Bft)
10.12.2010 01:40 0,8 C 92 % 1022,2 hPa 0,0 mm 3,2 km/h (1 Bft) W-NW 292 0 min 0 UV-I 0 W/m 17,7 km/h (3 Bft)
10.12.2010 01:50 0,8 C 92 % 1022,4 hPa 0,0 mm 3,2 km/h (1 Bft) W-NW 292 0 min 0 UV-I 0 W/m 14,5 km/h (3 Bft)
10.12.2010 02:00 0,8 C 92 % 1022,6 hPa 0,0 mm 3,2 km/h (1 Bft) NW 315 0 min 0 UV-I 0 W/m 11,3 km/h (2 Bft)
10.12.2010 02:10 0,8 C 92 % 1022,5 hPa 0,0 mm 3,2 km/h (1 Bft) NW 315 0 min 0 UV-I 0 W/m 14,5 km/h (3 Bft)
10.12.2010 02:20 0,8 C 92 % 1022,6 hPa 0,0 mm 3,2 km/h (1 Bft) NW 315 0 min 0 UV-I 0 W/m 16,1 km/h (3 Bft)
10.12.2010 02:30 0,8 C 92 % 1022,8 hPa 0,0 mm 3,2 km/h (1 Bft) W 270 0 min 0 UV-I 0 W/m 12,9 km/h (3 Bft)
10.12.2010 02:40 0,7 C 92 % 1023,0 hPa 0,0 mm 1,6 km/h (1 Bft) W-NW 292 0 min 0 UV-I 0 W/m 11,3 km/h (2 Bft)
10.12.2010 02:50 0,7 C 92 % 1023,0 hPa 0,0 mm 3,2 km/h (1 Bft) W-NW 292 0 min 0 UV-I 0 W/m 11,3 km/h (2 Bft)
10.12.2010 03:00 0,6 C 92 % 1023,0 hPa 0,0 mm 3,2 km/h (1 Bft) W-NW 292 0 min 0 UV-I 0 W/m 9,7 km/h (2 Bft)
10.12.2010 03:10 0,6 C 92 % 1023,0 hPa 0,0 mm 3,2 km/h (1 Bft) W 270 0 min 0 UV-I 0 W/m 11,3 km/h (2 Bft)
10.12.2010 03:20 0,6 C 92 % 1023,0 hPa 0,0 mm 1,6 km/h (1 Bft) W 270 0 min 0 UV-I 0 W/m 8,0 km/h (2 Bft)
10.12.2010 03:30 0,6 C 92 % 1023,3 hPa 0,0 mm 3,2 km/h (1 Bft) W 270 0 min 0 UV-I 0 W/m 12,9 km/h (3 Bft)
10.12.2010 03:40 0,6 C 92 % 1023,4 hPa 0,0 mm 3,2 km/h (1 Bft) W 270 0 min 0 UV-I 0 W/m 11,3 km/h (2 Bft)
10.12.2010 03:50 0,5 C 92 % 1023,6 hPa 0,0 mm 1,6 km/h (1 Bft) W-NW 292 0 min 0 UV-I 0 W/m 11,3 km/h (2 Bft)
10.12.2010 04:00 0,5 C 92 % 1023,7 hPa 0,0 mm 1,6 km/h (1 Bft) W-NW 292 0 min 0 UV-I 0 W/m 8,0 km/h (2 Bft)
10.12.2010 04:10 0,5 C 92 % 1023,9 hPa 0,0 mm 3,2 km/h (1 Bft) W-NW 292 0 min 0 UV-I 0 W/m 9,7 km/h (2 Bft)
10.12.2010 04:20 0,4 C 92 % 1023,9 hPa 0,0 mm 4,8 km/h (1 Bft) W-NW 292 0 min 0 UV-I 0 W/m 14,5 km/h (3 Bft)
10.12.2010 04:30 0,4 C 92 % 1024,1 hPa 0,0 mm 3,2 km/h (1 Bft) W-NW 292 0 min 0 UV-I 0 W/m 11,3 km/h (2 Bft)
10.12.2010 04:40 0,4 C 92 % 1024,4 hPa 0,0 mm 3,2 km/h (1 Bft) NW 315 0 min 0 UV-I 0 W/m 9,7 km/h (2 Bft)
10.12.2010 04:50 0,3 C 92 % 1024,6 hPa 0,0 mm 3,2 km/h (1 Bft) W-NW 292 0 min 0 UV-I 0 W/m 9,7 km/h (2 Bft)
10.12.2010 05:00 0,3 C 92 % 1024,7 hPa 0,0 mm 3,2 km/h (1 Bft) W-NW 292 0 min 0 UV-I 0 W/m 14,5 km/h (3 Bft)
10.12.2010 05:10 0,3 C 92 % 1024,8 hPa 0,0 mm 3,2 km/h (1 Bft) W-NW 292 0 min 0 UV-I 0 W/m 14,5 km/h (3 Bft)
10.12.2010 05:20 0,3 C 92 % 1025,0 hPa 0,0 mm 1,6 km/h (1 Bft) W-NW 292 0 min 0 UV-I 0 W/m 6,4 km/h (2 Bft)
10.12.2010 05:30 0,3 C 92 % 1025,1 hPa 0,0 mm 1,6 km/h (1 Bft) W-NW 292 0 min 0 UV-I 0 W/m 11,3 km/h (2 Bft)
10.12.2010 05:40 0,3 C 92 % 1025,5 hPa 0,0 mm 3,2 km/h (1 Bft) W-NW 292 0 min 0 UV-I 0 W/m 8,0 km/h (2 Bft)
10.12.2010 05:50 0,3 C 92 % 1025,9 hPa 0,0 mm 1,6 km/h (1 Bft) W-NW 292 0 min 0 UV-I 0 W/m 6,4 km/h (2 Bft)
10.12.2010 06:00 0,3 C 92 % 1025,9 hPa 0,0 mm 1,6 km/h (1 Bft) N-NW 337 0 min 0 UV-I 0 W/m 6,4 km/h (2 Bft)
10.12.2010 06:10 0,3 C 92 % 1026,0 hPa 0,0 mm 3,2 km/h (1 Bft) W-NW 292 0 min 0 UV-I 0 W/m 11,3 km/h (2 Bft)
10.12.2010 06:20 0,3 C 92 % 1026,0 hPa 0,0 mm 1,6 km/h (1 Bft) NW 315 0 min 0 UV-I 0 W/m 4,8 km/h (1 Bft)
10.12.2010 06:30 0,3 C 92 % 1026,1 hPa 0,0 mm 1,6 km/h (1 Bft) W-NW 292 0 min 0 UV-I 0 W/m 9,7 km/h (2 Bft)
10.12.2010 06:40 0,3 C 92 % 1026,2 hPa 0,0 mm 3,2 km/h (1 Bft) W-NW 292 0 min 0 UV-I 0 W/m 8,0 km/h (2 Bft)
10.12.2010 06:50 0,3 C 92 % 1026,4 hPa 0,0 mm 1,6 km/h (1 Bft) W-NW 292 0 min 0 UV-I 0 W/m 8,0 km/h (2 Bft)
10.12.2010 07:00 0,3 C 92 % 1026,4 hPa 0,0 mm 0,0 km/h (0 Bft) W 270 0 min 0 UV-I 0 W/m 4,8 km/h (1 Bft)
10.12.2010 07:10 0,3 C 92 % 1026,5 hPa 0,0 mm 1,6 km/h (1 Bft) W-NW 292 0 min 0 UV-I 0 W/m 8,0 km/h (2 Bft)
10.12.2010 07:20 0,3 C 92 % 1026,8 hPa 0,0 mm 1,6 km/h (1 Bft) W-NW 292 0 min 0 UV-I 0 W/m 6,4 km/h (2 Bft)
10.12.2010 07:30 0,2 C 92 % 1026,8 hPa 0,0 mm 0,0 km/h (0 Bft) N-NW 337 0 min 0 UV-I 0 W/m 6,4 km/h (2 Bft)
10.12.2010 07:40 0,2 C 92 % 1027,0 hPa 0,0 mm 0,0 km/h (0 Bft) NW 315 0 min 0 UV-I 0 W/m 3,2 km/h (1 Bft)
10.12.2010 07:50 0,2 C 92 % 1027,2 hPa 0,0 mm 0,0 km/h (0 Bft) NW 315 0 min 0 UV-I 0 W/m 3,2 km/h (1 Bft)
10.12.2010 08:00 0,2 C 92 % 1027,0 hPa 0,0 mm 0,1 km/h (0 Bft) N 360 0 min 0 UV-I 0 W/m 1,6 km/h (1 Bft)
10.12.2010 08:10 0,2 C 92 % 1026,9 hPa 0,0 mm 1,6 km/h (1 Bft) W-NW 292 0 min 0 UV-I 0 W/m 4,8 km/h (1 Bft)
10.12.2010 08:20 0,2 C 92 % 1027,1 hPa 0,0 mm 0,0 km/h (0 Bft) W 270 0 min 0 UV-I 0 W/m 4,8 km/h (1 Bft)
10.12.2010 08:30 0,2 C 92 % 1027,0 hPa 0,0 mm 0,0 km/h (0 Bft) W 270 0 min 0 UV-I 0 W/m 3,2 km/h (1 Bft)
10.12.2010 08:40 0,2 C 92 % 1027,1 hPa 0,0 mm 0,0 km/h (0 Bft) SW 225 0 min 0 UV-I 9 W/m 4,8 km/h (1 Bft)
10.12.2010 08:50 0,3 C 92 % 1027,3 hPa 0,0 mm 1,6 km/h (1 Bft) W-SW 247 0 min 0 UV-I 25 W/m 6,4 km/h (2 Bft)
10.12.2010 09:00 0,3 C 92 % 1027,3 hPa 0,0 mm 3,2 km/h (1 Bft) W 270 0 min 0 UV-I 25 W/m 8,0 km/h (2 Bft)
10.12.2010 09:10 0,3 C 92 % 1027,3 hPa 0,0 mm 1,6 km/h (1 Bft) W-SW 247 0 min 0 UV-I 32 W/m 6,4 km/h (2 Bft)
10.12.2010 09:20 0,4 C 92 % 1027,5 hPa 0,0 mm 1,6 km/h (1 Bft) W-SW 247 0 min 0 UV-I 30 W/m 8,0 km/h (2 Bft)
10.12.2010 09:30 0,4 C 92 % 1027,5 hPa 0,0 mm 1,6 km/h (1 Bft) W 270 0 min 0 UV-I 30 W/m 6,4 km/h (2 Bft)
10.12.2010 09:40 0,4 C 92 % 1027,6 hPa 0,0 mm 1,6 km/h (1 Bft) W-SW 247 0 min 0 UV-I 37 W/m 6,4 km/h (2 Bft)
10.12.2010 09:50 0,4 C 92 % 1027,6 hPa 0,0 mm 3,2 km/h (1 Bft) W 270 0 min 0 UV-I 42 W/m 9,7 km/h (2 Bft)
10.12.2010 10:00 0,4 C 92 % 1027,9 hPa 0,0 mm 3,2 km/h (1 Bft) W-SW 247 0 min 0 UV-I 26 W/m 8,0 km/h (2 Bft)
10.12.2010 10:10 0,3 C 92 % 1027,7 hPa 0,0 mm 4,8 km/h (1 Bft) W-SW 247 0 min 0 UV-I 33 W/m 11,3 km/h (2 Bft)
10.12.2010 10:20 0,3 C 92 % 1028,0 hPa 0,0 mm 3,2 km/h (1 Bft) W 270 0 min 0 UV-I 40 W/m 9,7 km/h (2 Bft)
10.12.2010 10:30 0,2 C 92 % 1028,0 hPa 0,0 mm 3,2 km/h (1 Bft) W 270 0 min 0 UV-I 33 W/m 11,3 km/h (2 Bft)
10.12.2010 10:40 0,2 C 92 % 1028,0 hPa 0,0 mm 3,2 km/h (1 Bft) W-SW 247 0 min 0 UV-I 30 W/m 9,7 km/h (2 Bft)
10.12.2010 10:50 0,3 C 92 % 1028,0 hPa 0,0 mm 1,6 km/h (1 Bft) W 270 0 min 0 UV-I 53 W/m 9,7 km/h (2 Bft)
10.12.2010 11:00 0,3 C 92 % 1028,0 hPa 0,0 mm 1,6 km/h (1 Bft) W-SW 247 0 min 0 UV-I 62 W/m 8,0 km/h (2 Bft)
10.12.2010 11:10 0,4 C 92 % 1028,2 hPa 0,0 mm 3,2 km/h (1 Bft) W-SW 247 0 min 0 UV-I 67 W/m 9,7 km/h (2 Bft)
10.12.2010 11:20 0,4 C 92 % 1028,3 hPa 0,0 mm 3,2 km/h (1 Bft) W 270 0 min 0 UV-I 60 W/m 9,7 km/h (2 Bft)
10.12.2010 11:30 0,5 C 92 % 1027,9 hPa 0,0 mm 3,2 km/h (1 Bft) W 270 0 min 0 UV-I 72 W/m 14,5 km/h (3 Bft)
10.12.2010 11:40 0,5 C 92 % 1027,8 hPa 0,0 mm 3,2 km/h (1 Bft) S-SW 202 0 min 0 UV-I 63 W/m 11,3 km/h (2 Bft)
10.12.2010 11:50 0,4 C 92 % 1027,9 hPa 0,0 mm 3,2 km/h (1 Bft) W-SW 247 0 min 0 UV-I 60 W/m 14,5 km/h (3 Bft)
10.12.2010 12:00 0,4 C 92 % 1027,9 hPa 0,0 mm 1,6 km/h (1 Bft) W-SW 247 0 min 1 UV-I 111 W/m 8,0 km/h (2 Bft)
10.12.2010 12:10 0,4 C 92 % 1028,2 hPa 0,0 mm 3,2 km/h (1 Bft) W 270 10 min 1 UV-I 153 W/m 16,1 km/h (3 Bft)
10.12.2010 12:20 0,5 C 92 % 1028,2 hPa 0,0 mm 3,2 km/h (1 Bft) W 270 0 min 1 UV-I 81 W/m 8,0 km/h (2 Bft)
10.12.2010 12:30 0,6 C 92 % 1028,1 hPa 0,0 mm 1,6 km/h (1 Bft) W 270 10 min 1 UV-I 149 W/m 8,0 km/h (2 Bft)
10.12.2010 12:40 0,7 C 92 % 1028,1 hPa 0,0 mm 1,6 km/h (1 Bft) W 270 0 min 1 UV-I 134 W/m 6,4 km/h (2 Bft)
10.12.2010 12:50 0,8 C 92 % 1027,8 hPa 0,0 mm 1,6 km/h (1 Bft) W-NW 292 0 min 1 UV-I 121 W/m 6,4 km/h (2 Bft)
10.12.2010 13:00 0,9 C 92 % 1027,6 hPa 0,0 mm 0,0 km/h (0 Bft) W 270 0 min 1 UV-I 111 W/m 4,8 km/h (1 Bft)
10.12.2010 13:10 1,0 C 92 % 1027,7 hPa 0,0 mm 1,6 km/h (1 Bft) W-NW 292 0 min 1 UV-I 109 W/m 4,8 km/h (1 Bft)
10.12.2010 13:20 1,1 C 92 % 1028,0 hPa 0,0 mm 0,0 km/h (0 Bft) W-NW 292 0 min 1 UV-I 91 W/m 1,6 km/h (1 Bft)
10.12.2010 13:30 1,2 C 92 % 1028,0 hPa 0,0 mm 0,0 km/h (0 Bft) W-NW 292 0 min 1 UV-I 91 W/m 3,2 km/h (1 Bft)
10.12.2010 13:40 1,3 C 92 % 1028,0 hPa 0,0 mm 0,0 km/h (0 Bft) W-NW 292 0 min 0 UV-I 93 W/m 1,6 km/h (1 Bft)
10.12.2010 13:50 1,4 C 92 % 1028,0 hPa 0,0 mm 0,0 km/h (0 Bft) W-NW 292 0 min 0 UV-I 77 W/m 1,6 km/h (1 Bft)
10.12.2010 14:00 1,4 C 92 % 1027,8 hPa 0,0 mm 0,0 km/h (0 Bft) W-NW 292 0 min 0 UV-I 77 W/m 3,2 km/h (1 Bft)
10.12.2010 14:10 1,4 C 92 % 1027,7 hPa 0,0 mm 0,0 km/h (0 Bft) W-NW 292 0 min 0 UV-I 67 W/m 1,6 km/h (1 Bft)
10.12.2010 14:20 1,6 C 92 % 1027,7 hPa 0,0 mm 0,0 km/h (0 Bft) W 270 0 min 0 UV-I 69 W/m 3,2 km/h (1 Bft)
10.12.2010 14:30 1,6 C 92 % 1027,5 hPa 0,0 mm 0,0 km/h (0 Bft) W 270 0 min 0 UV-I 69 W/m 1,6 km/h (1 Bft)
10.12.2010 14:40 1,6 C 92 % 1027,3 hPa 0,0 mm 0,0 km/h (0 Bft) W 270 0 min 0 UV-I 88 W/m 1,6 km/h (1 Bft)
10.12.2010 14:50 1,6 C 92 % 1027,0 hPa 0,0 mm 0,0 km/h (0 Bft) W 270 10 min 0 UV-I 90 W/m 1,6 km/h (1 Bft)
10.12.2010 15:00 1,6 C 92 % 1027,0 hPa 0,0 mm 0,0 km/h (0 Bft) N 0 10 min 0 UV-I 81 W/m 0,0 km/h (0 Bft)
10.12.2010 15:10 1,6 C 92 % 1027,0 hPa 0,0 mm 0,0 km/h (0 Bft) W 270 10 min 0 UV-I 63 W/m 3,2 km/h (1 Bft)
10.12.2010 15:20 1,6 C 92 % 1026,9 hPa 0,0 mm 0,0 km/h (0 Bft) S-SW 202 0 min 0 UV-I 51 W/m 3,2 km/h (1 Bft)
10.12.2010 15:30 1,6 C 91 % 1026,9 hPa 0,0 mm 0,0 km/h (0 Bft) S-SW 202 0 min 0 UV-I 23 W/m 3,2 km/h (1 Bft)
10.12.2010 15:40 1,5 C 91 % 1026,8 hPa 0,0 mm 0,0 km/h (0 Bft) S-SW 202 0 min 0 UV-I 21 W/m 3,2 km/h (1 Bft)
10.12.2010 15:50 1,4 C 91 % 1026,7 hPa 0,0 mm 0,0 km/h (0 Bft) S-SW 202 0 min 0 UV-I 19 W/m 1,6 km/h (1 Bft)
10.12.2010 16:00 1,4 C 91 % 1026,5 hPa 0,0 mm 0,0 km/h (0 Bft) S-SW 207 0 min 0 UV-I 5 W/m 0,0 km/h (0 Bft)
10.12.2010 16:10 1,4 C 91 % 1026,2 hPa 0,0 mm 0,0 km/h (0 Bft) N 0 0 min 0 UV-I 5 W/m 0,0 km/h (0 Bft)
10.12.2010 16:20 1,4 C 91 % 1026,0 hPa 0,0 mm 0,0 km/h (0 Bft) S-SW 202 0 min 0 UV-I 0 W/m 3,2 km/h (1 Bft)
10.12.2010 16:30 1,3 C 91 % 1026,2 hPa 0,0 mm 0,0 km/h (0 Bft) S-SW 202 0 min 0 UV-I 0 W/m 3,2 km/h (1 Bft)
10.12.2010 16:40 1,2 C 91 % 1026,2 hPa 0,0 mm 0,0 km/h (0 Bft) S-SW 202 0 min 0 UV-I 0 W/m 3,2 km/h (1 Bft)
10.12.2010 16:50 1,1 C 91 % 1025,9 hPa 0,0 mm 0,0 km/h (0 Bft) S-SW 202 0 min 0 UV-I 0 W/m 4,8 km/h (1 Bft)
10.12.2010 17:00 1,1 C 91 % 1025,7 hPa 0,0 mm 0,0 km/h (0 Bft) SW 225 0 min 0 UV-I 0 W/m 6,4 km/h (2 Bft)
10.12.2010 17:10 1,1 C 91 % 1025,7 hPa 0,0 mm 0,0 km/h (0 Bft) SW 225 0 min 0 UV-I 0 W/m 4,8 km/h (1 Bft)
10.12.2010 17:20 1,1 C 91 % 1025,3 hPa 0,0 mm 0,0 km/h (0 Bft) W-SW 247 0 min 0 UV-I 0 W/m 4,8 km/h (1 Bft)
10.12.2010 17:30 1,2 C 91 % 1025,3 hPa 0,0 mm 1,6 km/h (1 Bft) SW 225 0 min 0 UV-I 0 W/m 8,0 km/h (2 Bft)
10.12.2010 17:40 1,3 C 91 % 1025,3 hPa 0,0 mm 3,2 km/h (1 Bft) W-SW 247 0 min 0 UV-I 0 W/m 9,7 km/h (2 Bft)
10.12.2010 17:50 1,4 C 91 % 1025,1 hPa 0,0 mm 3,2 km/h (1 Bft) W-SW 247 0 min 0 UV-I 0 W/m 9,7 km/h (2 Bft)
10.12.2010 18:00 1,6 C 91 % 1025,0 hPa 0,0 mm 1,6 km/h (1 Bft) W-SW 247 0 min 0 UV-I 0 W/m 8,0 km/h (2 Bft)
10.12.2010 18:10 1,7 C 91 % 1025,0 hPa 0,3 mm 1,6 km/h (1 Bft) W-SW 247 0 min 0 UV-I 0 W/m 9,7 km/h (2 Bft)
10.12.2010 18:20 1,8 C 91 % 1024,9 hPa 0,0 mm 1,6 km/h (1 Bft) SW 225 0 min 0 UV-I 0 W/m 8,0 km/h (2 Bft)
10.12.2010 18:30 1,8 C 91 % 1024,7 hPa 0,0 mm 1,6 km/h (1 Bft) W-SW 247 0 min 0 UV-I 0 W/m 8,0 km/h (2 Bft)
10.12.2010 18:40 1,9 C 91 % 1024,4 hPa 0,3 mm 1,6 km/h (1 Bft) SW 225 0 min 0 UV-I 0 W/m 9,7 km/h (2 Bft)
10.12.2010 18:50 1,9 C 91 % 1024,3 hPa 0,0 mm 3,2 km/h (1 Bft) W-SW 247 0 min 0 UV-I 0 W/m 11,3 km/h (2 Bft)
10.12.2010 19:00 1,9 C 92 % 1024,1 hPa 0,3 mm 3,2 km/h (1 Bft) W-SW 247 0 min 0 UV-I 0 W/m 14,5 km/h (3 Bft)
10.12.2010 19:10 2,1 C 92 % 1024,0 hPa 0,0 mm 4,8 km/h (1 Bft) SW 225 0 min 0 UV-I 0 W/m 16,1 km/h (3 Bft)
10.12.2010 19:20 2,1 C 92 % 1023,8 hPa 0,0 mm 4,8 km/h (1 Bft) SW 225 0 min 0 UV-I 0 W/m 14,5 km/h (3 Bft)
10.12.2010 19:30 2,2 C 92 % 1023,5 hPa 0,0 mm 4,8 km/h (1 Bft) SW 225 0 min 0 UV-I 0 W/m 19,3 km/h (3 Bft)
10.12.2010 19:40 2,2 C 92 % 1023,3 hPa 0,3 mm 3,2 km/h (1 Bft) SW 225 0 min 0 UV-I 0 W/m 9,7 km/h (2 Bft)
10.12.2010 19:50 2,3 C 92 % 1023,1 hPa 0,0 mm 4,8 km/h (1 Bft) S-SW 202 0 min 0 UV-I 0 W/m 14,5 km/h (3 Bft)
10.12.2010 20:00 2,3 C 92 % 1023,1 hPa 0,0 mm 4,8 km/h (1 Bft) W-SW 247 0 min 0 UV-I 0 W/m 16,1 km/h (3 Bft)
10.12.2010 20:10 2,4 C 92 % 1022,9 hPa 0,0 mm 4,8 km/h (1 Bft) W-SW 247 0 min 0 UV-I 0 W/m 14,5 km/h (3 Bft)
10.12.2010 20:20 2,5 C 92 % 1022,8 hPa 0,3 mm 4,8 km/h (1 Bft) W-SW 247 0 min 0 UV-I 0 W/m 17,7 km/h (3 Bft)
10.12.2010 20:30 2,6 C 92 % 1022,6 hPa 0,0 mm 4,8 km/h (1 Bft) W-SW 247 0 min 0 UV-I 0 W/m 16,1 km/h (3 Bft)
10.12.2010 20:40 2,6 C 92 % 1022,4 hPa 0,0 mm 3,2 km/h (1 Bft) SW 225 0 min 0 UV-I 0 W/m 9,7 km/h (2 Bft)
10.12.2010 20:50 2,6 C 92 % 1022,2 hPa 0,3 mm 3,2 km/h (1 Bft) SW 225 0 min 0 UV-I 0 W/m 9,7 km/h (2 Bft)
10.12.2010 21:00 2,6 C 92 % 1022,1 hPa 0,0 mm 4,8 km/h (1 Bft) W-SW 247 0 min 0 UV-I 0 W/m 16,1 km/h (3 Bft)
10.12.2010 21:10 2,6 C 92 % 1021,9 hPa 0,3 mm 6,4 km/h (2 Bft) W-SW 247 0 min 0 UV-I 0 W/m 17,7 km/h (3 Bft)
10.12.2010 21:20 2,7 C 92 % 1021,8 hPa 0,0 mm 6,4 km/h (2 Bft) W-SW 247 0 min 0 UV-I 0 W/m 16,1 km/h (3 Bft)
10.12.2010 21:30 2,8 C 92 % 1021,6 hPa 0,0 mm 6,4 km/h (2 Bft) W-SW 247 0 min 0 UV-I 0 W/m 19,3 km/h (3 Bft)
10.12.2010 21:40 2,8 C 93 % 1021,6 hPa 0,0 mm 9,7 km/h (2 Bft) W-SW 247 0 min 0 UV-I 0 W/m 20,9 km/h (4 Bft)
10.12.2010 21:50 2,9 C 93 % 1021,5 hPa 0,0 mm 8,0 km/h (2 Bft) W-SW 247 0 min 0 UV-I 0 W/m 19,3 km/h (3 Bft)
10.12.2010 22:00 2,9 C 93 % 1021,4 hPa 0,3 mm 8,0 km/h (2 Bft) W-SW 247 0 min 0 UV-I 0 W/m 19,3 km/h (3 Bft)
10.12.2010 22:10 2,9 C 93 % 1021,1 hPa 0,3 mm 8,0 km/h (2 Bft) W-SW 247 0 min 0 UV-I 0 W/m 22,5 km/h (4 Bft)
10.12.2010 22:20 3,0 C 93 % 1021,0 hPa 0,3 mm 8,0 km/h (2 Bft) W-SW 247 0 min 0 UV-I 0 W/m 24,1 km/h (4 Bft)
10.12.2010 22:30 3,0 C 93 % 1020,8 hPa 0,0 mm 6,4 km/h (2 Bft) W-SW 247 0 min 0 UV-I 0 W/m 19,3 km/h (3 Bft)
10.12.2010 22:40 3,0 C 93 % 1020,6 hPa 0,3 mm 8,0 km/h (2 Bft) W-SW 247 0 min 0 UV-I 0 W/m 20,9 km/h (4 Bft)
10.12.2010 22:50 3,1 C 93 % 1020,3 hPa 0,0 mm 8,0 km/h (2 Bft) W-SW 247 0 min 0 UV-I 0 W/m 19,3 km/h (3 Bft)
10.12.2010 23:00 3,1 C 93 % 1020,1 hPa 0,3 mm 8,0 km/h (2 Bft) W-SW 247 0 min 0 UV-I 0 W/m 25,7 km/h (4 Bft)
10.12.2010 23:10 3,1 C 93 % 1020,0 hPa 0,0 mm 11,3 km/h (2 Bft) W-SW 247 0 min 0 UV-I 0 W/m 27,4 km/h (4 Bft)
10.12.2010 23:20 3,1 C 93 % 1019,9 hPa 0,3 mm 9,7 km/h (2 Bft) SW 225 0 min 0 UV-I 0 W/m 27,4 km/h (4 Bft)
10.12.2010 23:30 3,2 C 93 % 1019,6 hPa 0,3 mm 9,7 km/h (2 Bft) W-SW 247 0 min 0 UV-I 0 W/m 25,7 km/h (4 Bft)
10.12.2010 23:40 3,2 C 93 % 1019,3 hPa 0,0 mm 11,3 km/h (2 Bft) W-SW 247 0 min 0 UV-I 0 W/m 29,0 km/h (5 Bft)
10.12.2010 23:50 3,2 C 93 % 1019,2 hPa 0,5 mm 9,7 km/h (2 Bft) W-SW 247 0 min 0 UV-I 0 W/m 20,9 km/h (4 Bft)
_ Min-Zeit 07:20 00:00 23:50 - 07:00 - - - - - 15:00
Minimum _ 0,2 C 91 % 1019,2 hPa - 0,0 km/h (0 Bft) - - - - - 0,0 km/h (0 Bft)
_ Max-Zeit 23:20 21:40 11:20 23:50 23:10 - - 12:10 12:30 12:10 23:40
Maximum _ 3,2 C 93 % 1028,3 hPa 0,5 mm 11,3 km/h
W-SW (2 Bft)
- - 10 min 1 UV-I 153 W/m 29,0 km/h
W-SW (5 Bft)
Durchschnitt _ 1,2 C 92 % 1024,9 hPa #4,8 mm 2,8 km/h (1 Bft) W-SW - #50 min. 1 UV-I 63 W/m 10,1 km/h (2 Bft)